SL-14 DEB

Satellite information

Favourite Embed

Satellite Type and Status

DEBRISIN ORBIT

Key statistics

Satellite SL-14 DEB at a glance.

Uptime

13944

Days in orbit

Revolutions

≈ 13.9

Per day

Orbit

LEO

Low Earth Orbit

Inclination

82.5

Latest

Satellite identification and parameters

Extended collection of information and parameters for SL-14 DEB.

Object identification

Identified? True

Debris? True

Object name: SL-14 DEB

International designator: 1987-068CR

Object number (NORAD): 35522

Object ID (CCSDS): 35522

Country: COMMONWEALTH OF INDEPENDENT STATES (CIS)

Current information (Y/N): Y

RCS size: SMALL

Orbital parameters

Period: 103.733 minutes

Inclination: 82.5437 deg

SMA: 7313.147 km

Apoapsis: 949.408 km

Periapsis: 920.617 km

RAAN: 110.8267 deg

Eccentricy: 0.00196843

Argument of periapsis: 29.2254 deg

Mean anomaly: 148.5682 deg

Mean motion: 13.88181614 rev/day

Mean motion (dot): 0.00000432 rev/day2

B* drag term: 0.00034890432 1/REarth

Two-line elements (TLE)

Creation date: Oct. 12, 2025, 10:10 a.m.

Reference frame: TEME

Reference center: EARTH

Epoch: Oct. 12, 2025, 6:15 a.m. UTC

TLE line 0: 0 SL-14 DEB

TLE line 1: 1 35522U 87068CR 25285.26093894 .00000432 00000-0 34890-3 0 9995

TLE line 2: 2 35522 82.5437 110.8267 0019684 29.2254 148.5682 13.88181614619073

Live tracking on map

Real-time ground track for satellite SL-14 DEB.

In-orbit conjunctions

A list of the most updated potential collisions computed for object SL-14 DEB.

Target Orbit TCA Probability of collision Miss distance Type
CZ-6A DEB LEO 2025-10-04 10:35:18 0.0001251239 431.0 (m) DEBRIS

Associated space launch

Second generation soviet meteorological satellite

SL-14 DEB was lifted into orbit during the mission ‘Tsiklon-3 | Meteor-2 16’, on board a Tsiklon-3 space rocket.

The launch took place on Aug. 18, 1987, 2:27 a.m. from 32/1.

For more information about the launch, click the button.

Launch to space Tsiklon-3 | Meteor-2 16
Tsiklon-3 | Meteor-2 16

Agency: N/A

Status: Launch Successful

Launch date: Aug. 18, 1987, 2:27 a.m. UTC

Rocket: Tsiklon-3

Launch pad: 32/1

Location: Plesetsk Cosmodrome, Russian Federation

...

Latest news about this satellite

There are no fresh news available about this satellite. Check back as we update our databases every day.


Newsletter sign-up

Weekly statistics, charts and insights to help you stay on top of the space industry.